GFSSGP_925_temp_159.txt.gz
Temp
24 24 24 23 24 24 25 27 27 26 24 25 25 25 24 23 24 23 20 20 20 20 21 21 21 21 21 21 22 22 21 21 21 22 21 21 21 21 21 21 21 21 21 21 21 21 20 20 20
24 23 23 23 23 24 25 27 25 26 25 26 26 25 24 23 22 20 20 20 20 21 21 22 22 22 21 22 22 22 21 21 22 22 21 22 21 21 21 21 21 21 21 21 21 21 21 21 21
24 25 24 25 25 24 24 27 26 26 27 28 25 25 25 22 22 21 20 20 20 21 21 21 22 22 21 22 22 22 21 21 21 21 21 22 22 21 21 21 21 21 21 21 21 20 21 22 22
25 25 25 26 28 28 26 26 27 26 26 26 25 24 23 22 22 20 20 20 20 21 21 22 22 21 21 21 21 21 21 21 21 21 21 21 21 21 21 21 21 21 21 21 22 21 21 21 22
26 25 26 27 28 28 27 27 27 25 25 25 25 23 22 20 20 19 19 20 21 21 21 21 22 21 21 22 22 22 22 22 21 21 21 21 21 21 21 21 21 21 21 22 22 22 22 22 22
25 25 27 26 29 28 27 26 25 24 24 24 24 24 21 19 19 19 19 20 20 21 21 21 22 22 22 22 21 21 22 23 22 22 22 22 22 21 21 21 21 21 22 22 22 22 22 22 23
26 27 29 29 28 29 27 27 25 25 25 24 25 23 21 20 18 19 20 20 20 20 20 21 21 21 21 21 22 22 21 21 21 21 22 22 21 21 21 21 21 22 22 22 22 23 23 23 23
26 27 31 30 28 28 27 27 26 26 24 25 25 22 22 19 18 18 19 19 20 20 20 21 21 21 21 21 22 22 22 22 22 21 21 21 21 22 22 22 22 22 22 22 22 22 23 23 23
28 27 28 29 28 27 27 26 26 26 25 24 25 24 21 19 19 18 18 19 19 20 21 21 21 22 21 21 21 21 22 22 22 22 22 22 22 22 22 23 23 23 23 23 23 23 23 23 24
27 26 29 31 29 28 27 26 25 24 23 22 22 21 20 19 19 19 18 18 19 20 21 21 21 22 21 21 21 22 22 22 22 22 22 22 22 22 22 23 22 22 23 22 23 23 23 23 23
27 28 30 30 30 28 27 27 26 23 23 23 22 21 21 20 20 19 19 18 19 19 21 22 22 22 21 22 22 23 22 22 23 23 23 23 23 23 23 23 23 23 23 23 23 23 23 24 24
29 31 32 30 29 29 27 26 25 25 24 24 23 22 21 21 20 20 19 19 19 19 20 21 22 22 22 22 22 22 22 23 23 23 23 23 23 23 23 23 23 23 23 23 23 23 24 24 24
33 32 32 31 30 28 28 26 26 25 24 24 23 22 21 21 20 21 20 19 19 19 20 21 22 22 22 22 22 23 23 23 23 23 23 23 23 23 23 23 23 24 24 23 24 24 23 23 23
33 32 31 30 30 29 27 26 26 25 24 23 23 22 21 20 20 20 20 19 19 20 21 22 23 22 22 22 23 23 23 23 23 23 23 23 23 23 23 23 23 24 24 24 23 23 23 23 23
32 30 30 30 29 28 28 27 25 25 25 24 23 22 22 22 21 20 20 19 20 20 21 22 23 23 22 23 23 24 24 23 22 23 23 23 23 23 23 23 23 23 23 23 23 23 23 23 23
30 29 27 30 29 29 28 26 26 25 25 24 24 24 24 23 22 21 20 20 20 20 21 22 23 23 23 23 24 24 24 24 24 24 24 24 25 23 23 23 24 23 23 23 24 24 24 24 23
28 28 30 29 30 29 29 26 27 26 25 24 25 25 24 23 23 22 22 21 21 21 21 22 22 23 23 23 23 24 24 24 24 24 24 24 24 25 24 23 24 23 23 23 23 26 24 25 24
30 31 30 29 31 30 28 26 27 26 26 25 25 25 25 24 23 23 22 22 22 21 22 22 23 23 23 23 23 23 24 24 24 24 24 25 25 25 25 25 24 24 23 23 23 23 23 23 23
32 31 31 31 32 29 27 27 28 26 26 26 26 25 25 24 25 24 23 23 22 22 22 23 23 24 24 23 23 23 24 24 24 24 24 25 24 24 25 24 24 23 23 23 23 22 22 23 22
30 31 30 31 31 30 27 27 28 28 27 27 26 26 25 25 25 24 24 24 23 23 23 23 24 24 24 24 24 24 25 24 24 24 25 25 24 24 24 24 24 24 23 23 22 22 22 21 22
30 30 30 30 30 29 29 27 27 28 28 28 27 27 26 26 25 25 25 24 23 23 23 24 24 24 24 24 24 24 24 24 24 25 26 26 25 24 24 23 24 23 23 23 22 21 21 21 23
30 31 32 30 31 28 29 26 26 27 28 28 28 27 27 27 26 25 25 25 24 23 25 25 25 24 24 24 24 24 24 24 25 25 25 25 25 25 25 24 24 24 24 24 23 22 22 21 21
31 33 32 31 28 27 29 27 25 27 27 28 28 28 28 27 27 26 26 25 25 24 24 24 24 24 25 25 24 24 24 24 25 25 25 25 25 26 26 26 25 25 24 24 24 23 23 23 22
34 34 28 25 25 28 28 28 27 27 29 29 30 29 29 28 28 27 27 26 25 25 24 24 23 24 25 25 25 25 25 25 25 25 24 25 26 26 25 24 25 24 24 25 25 24 24 23 23
31 28 27 29 27 28 27 29 30 29 31 31 30 30 30 29 28 28 27 27 26 25 24 24 24 24 24 25 25 26 25 25 25 25 25 25 24 24 24 25 25 24 23 24 23 24 24 24 23
31 29 26 30 27 29 26 30 31 29 31 32 32 31 30 29 29 28 28 27 27 26 25 25 25 24 24 25 26 25 26 25 25 24 25 25 25 25 26 26 26 25 23 22 24 24 24 23 23
32 30 29 25 25 27 27 29 31 29 29 30 31 31 30 30 29 29 28 28 27 26 26 25 25 25 26 24 24 24 25 24 24 24 24 25 25 25 24 25 25 24 23 23 23 23 23 22 22
32 29 30 25 30 30 28 28 28 31 30 29 29 28 29 29 29 28 26 27 27 26 26 26 26 28 24 25 24 25 24 25 25 23 23 23 22 25 24 23 22 21 21 21 21 21 22 22 21
30 30 25 25 24 27 27 27 26 30 28 28 28 28 27 27 27 26 26 26 27 26 26 26 26 24 24 24 25 24 25 26 25 24 24 22 20 21 22 22 22 22 22 21 21 21 21 20 20
32 30 27 26 28 24 25 28 29 28 28 27 26 25 24 26 25 25 24 23 22 22 22 23 23 23 23 24 25 25 24 25 25 24 23 22 21 21 22 21 21 21 20 20 19 20 19 19 19

GFSSGP_925_temp_162.txt.gz
Temp
22 22 23 23 24 23 24 26 26 25 23 24 24 24 23 23 24 23 20 20 20 20 21 22 21 21 21 22 22 22 22 21 22 22 22 21 21 21 22 21 21 21 21 21 20 21 20 20 20
23 23 23 22 23 23 24 26 25 24 24 25 25 24 24 22 22 20 20 20 21 21 21 21 21 21 21 21 22 22 21 21 22 21 22 21 21 21 21 21 21 21 21 21 21 21 20 20 20
23 24 23 24 23 23 24 26 25 25 26 26 24 24 24 22 22 20 20 20 21 21 21 21 21 21 21 21 22 22 22 22 21 21 21 21 21 21 21 21 21 21 21 21 21 21 20 21 21
24 24 23 25 26 26 25 25 26 25 26 25 24 23 22 21 22 20 20 20 21 21 22 22 21 21 21 21 21 21 22 22 21 21 21 21 21 21 21 21 21 21 21 20 20 20 21 22 22
25 24 25 26 26 27 26 26 26 24 24 24 25 22 22 20 19 19 20 20 21 21 21 21 21 22 22 22 21 22 22 22 21 21 21 21 21 21 21 21 21 21 20 20 21 21 22 22 22
24 24 26 26 27 27 25 24 24 23 24 24 24 23 21 19 19 19 20 20 20 21 21 22 22 22 21 21 21 21 21 22 21 21 21 21 21 21 21 21 21 21 21 21 21 22 22 22 22
27 26 28 28 27 27 25 25 24 24 24 24 25 23 20 19 18 19 19 20 20 20 21 21 21 21 21 21 21 21 21 21 22 22 22 22 22 21 21 21 21 22 22 22 22 22 22 22 23
25 26 30 29 27 27 26 25 26 25 23 25 24 22 21 19 18 19 19 20 20 21 21 21 21 21 21 22 22 21 21 22 21 21 21 22 22 21 22 22 22 22 22 22 22 23 22 23 23
28 27 28 29 28 27 25 25 25 25 24 23 24 24 20 19 18 19 19 20 20 19 21 22 22 21 21 21 21 21 21 22 22 21 21 22 22 22 22 22 22 22 22 23 23 23 24 23 23
26 26 29 29 28 27 26 25 24 23 23 23 21 20 19 19 19 19 19 19 20 20 20 21 21 21 21 22 22 22 22 22 22 22 22 22 22 22 22 22 22 23 22 22 23 23 23 24 24
27 28 29 29 28 27 25 25 24 22 23 23 22 21 20 20 20 19 19 19 20 20 20 21 21 21 22 22 22 22 22 22 22 22 22 23 23 22 23 23 23 23 23 23 23 23 23 24 24
29 29 30 27 27 27 25 24 23 24 23 23 23 22 21 20 20 20 18 18 19 20 21 21 21 22 22 22 22 22 22 22 22 22 22 23 23 23 23 23 23 23 23 23 23 24 24 24 23
31 30 28 27 27 25 26 25 25 23 23 23 22 22 21 21 20 20 19 19 20 20 21 22 22 22 23 23 22 22 23 23 23 22 22 22 23 23 23 23 23 23 24 24 23 23 23 23 23
30 28 28 27 28 27 25 25 26 23 23 22 22 22 22 22 22 20 19 19 19 20 21 22 22 22 23 23 23 23 23 23 23 23 23 23 23 23 23 23 23 23 23 23 23 23 23 23 23
29 27 28 28 28 26 26 26 24 23 23 22 22 21 21 21 21 21 20 20 20 21 22 22 22 22 22 23 23 23 23 23 23 23 23 23 23 23 23 23 23 23 23 23 23 23 23 23 23
29 27 26 29 28 26 27 26 25 24 23 22 22 22 21 20 20 20 20 19 20 21 22 22 22 22 23 23 24 24 24 24 24 24 23 23 24 24 24 24 24 23 23 24 23 23 23 23 24
27 27 28 28 28 27 27 26 25 24 23 22 23 23 22 21 21 20 20 20 20 21 22 22 22 23 23 23 23 23 24 24 24 24 24 24 25 24 25 24 24 24 24 24 24 23 23 23 23
28 28 28 27 28 28 26 26 25 24 24 23 23 23 23 22 22 21 21 20 21 21 21 22 22 23 23 23 23 23 24 24 24 24 24 24 24 25 25 24 24 24 23 24 25 23 23 23 22
30 29 30 29 30 28 25 26 25 24 24 24 23 23 23 23 23 22 22 21 21 21 21 22 22 23 23 23 23 23 24 24 24 24 24 25 24 24 23 23 23 23 23 23 22 21 21 22 21
29 28 28 29 30 28 26 26 25 25 24 24 24 24 24 23 23 23 22 22 21 21 21 21 22 23 23 23 23 23 23 24 24 24 24 25 24 23 22 22 22 22 22 22 22 22 21 19 20
29 29 29 31 28 27 27 27 25 26 25 25 25 25 25 24 23 23 23 22 22 22 22 22 23 23 24 23 23 23 23 23 24 24 25 24 24 24 23 23 23 23 23 23 22 22 21 20 21
30 29 30 28 28 26 28 26 24 25 26 26 26 25 25 25 25 24 23 23 22 22 23 23 24 24 25 24 23 23 23 23 24 24 24 24 24 24 24 24 24 23 23 24 23 23 22 20 21
30 31 29 28 26 26 28 27 27 25 25 26 27 26 26 25 25 25 24 24 23 23 24 24 24 24 24 24 24 24 23 24 24 24 24 25 25 24 24 24 24 25 25 24 24 24 24 23 23
33 30 26 24 25 26 26 27 26 24 28 28 28 28 27 26 26 25 25 25 24 24 23 24 24 25 25 24 24 24 24 24 24 25 25 25 25 25 24 24 25 25 25 24 25 24 24 23 23
29 27 25 26 26 26 25 26 27 28 28 29 28 29 28 28 26 26 25 25 24 24 24 24 24 24 25 25 24 24 24 25 24 24 24 25 25 24 24 25 25 25 25 24 24 24 23 23 22
28 27 25 29 26 28 26 27 29 29 29 29 29 29 29 28 27 27 26 25 24 24 24 24 24 24 24 24 25 25 24 24 24 24 24 24 25 25 24 24 24 24 24 24 23 23 23 22 21
28 29 27 23 22 26 25 27 29 29 28 27 28 28 28 28 28 27 26 25 25 24 24 25 24 25 24 25 25 24 25 24 25 24 25 23 25 23 23 23 23 23 24 23 23 22 22 21 21
31 27 29 24 27 29 27 28 29 30 30 28 27 27 28 27 27 25 26 26 25 24 25 25 25 26 25 25 25 25 25 25 25 24 24 24 24 21 21 22 22 22 22 22 22 21 21 20 21
28 28 24 23 23 26 26 27 25 28 29 27 26 27 26 25 25 25 25 26 25 25 24 24 25 24 24 25 25 25 25 25 24 24 23 23 23 22 21 21 21 21 20 20 19 19 19 19 19
29 28 25 25 27 22 24 27 27 25 26 26 26 26 26 25 24 23 23 24 24 24 24 24 24 24 24 24 24 24 24 24 23 21 21 22 22 21 20 20 20 19 20 20 19 19 19 19 18

GFSSGP_925_temp_165.txt.gz
Temp
22 22 22 24 29 31 29 28 29 28 26 26 26 28 24 25 24 23 19 20 20 20 20 21 22 22 22 22 22 22 22 22 22 22 21 21 21 21 21 21 21 21 21 21 21 21 21 21 20
22 22 23 27 30 31 29 28 27 27 26 27 26 27 26 23 22 20 20 20 20 20 21 21 21 22 22 22 22 22 22 21 21 21 21 21 21 21 21 21 21 21 21 21 21 21 21 20 21
22 23 28 29 29 29 29 27 27 27 27 27 26 26 24 22 23 20 20 20 20 21 21 21 22 22 22 22 22 22 22 21 21 21 21 21 21 21 21 21 21 21 21 21 21 21 20 21 21
24 26 29 31 29 28 28 28 27 27 27 27 26 24 22 22 22 20 20 20 20 21 21 22 22 21 22 22 22 22 22 22 21 21 21 21 21 21 21 21 21 21 20 20 21 21 21 22 22
25 29 32 30 29 28 28 28 27 26 26 26 27 23 22 20 20 20 20 20 21 21 21 21 22 21 21 22 22 22 22 21 21 21 21 21 21 21 21 21 21 20 20 20 21 21 22 22 22
29 29 31 30 29 28 27 27 26 26 26 26 25 23 21 20 20 19 20 20 21 21 21 21 21 21 21 22 22 22 21 21 21 21 21 21 21 21 21 21 21 21 21 21 21 22 22 22 23
31 32 31 30 29 28 27 27 27 27 26 25 26 23 20 19 19 19 20 20 20 20 21 21 22 21 21 21 22 22 21 21 21 21 21 21 21 21 21 21 21 21 21 22 22 22 23 23 23
31 32 32 31 30 28 28 27 27 27 25 27 26 23 21 19 19 19 19 20 20 20 21 21 21 22 21 21 22 21 21 21 21 21 21 21 21 22 22 22 22 22 22 22 22 23 23 23 23
30 33 32 32 31 28 28 27 26 26 26 24 26 24 21 18 18 19 19 19 19 20 20 21 21 22 21 21 21 21 21 21 22 21 22 22 21 21 22 22 22 22 23 22 22 22 23 23 24
32 33 33 32 31 29 28 27 26 26 25 23 22 20 20 19 19 20 20 19 19 19 20 21 22 22 22 21 21 22 22 21 21 22 22 22 22 22 22 22 23 23 23 23 23 23 23 23 23
31 33 32 30 30 30 28 27 26 26 25 24 22 21 20 20 20 20 21 21 20 20 20 21 22 22 22 22 22 22 22 22 22 22 22 22 23 23 22 23 23 23 23 23 23 22 22 22 23
33 32 32 30 29 29 28 27 26 26 26 25 24 22 21 21 21 22 21 20 20 21 20 21 21 22 22 22 22 22 22 22 23 23 22 22 22 23 23 23 24 23 24 23 23 23 23 23 22
33 31 30 30 29 29 28 27 26 25 25 24 23 23 23 23 22 22 22 22 21 21 21 20 21 22 22 23 22 23 23 23 23 23 22 23 22 23 23 23 23 23 23 23 23 23 22 23 23
31 31 30 31 30 29 29 28 28 24 24 23 23 23 23 23 23 22 21 21 21 21 21 21 22 22 22 23 23 23 23 23 23 23 23 23 23 23 23 23 23 23 23 23 23 23 23 23 23
32 31 31 30 30 29 30 29 27 25 25 23 23 23 23 23 23 22 22 22 21 21 21 21 22 22 22 23 23 23 23 23 23 23 23 23 23 24 24 23 23 23 23 23 23 23 23 22 23
32 33 32 30 30 29 30 29 26 25 25 24 23 22 23 22 22 23 22 22 21 21 21 21 21 21 23 23 23 23 23 23 24 24 24 24 23 24 24 24 23 22 23 23 23 22 22 22 21
32 33 32 30 31 30 29 30 28 26 26 26 25 25 24 24 23 22 22 22 22 21 21 21 20 21 22 23 23 23 23 23 24 23 23 24 24 24 24 24 24 23 23 21 23 21 22 21 22
33 32 32 32 31 31 30 31 29 27 27 26 26 26 26 25 25 23 22 22 21 21 20 20 21 21 22 22 23 23 23 24 24 24 24 24 24 24 24 24 24 23 23 22 20 20 21 20 21
33 33 33 33 32 32 32 32 30 28 28 27 27 27 27 27 27 25 23 22 21 21 20 20 20 21 21 20 21 21 22 23 24 24 24 24 24 24 24 23 23 23 23 22 23 22 21 22 22
34 34 34 33 33 32 31 32 31 29 29 29 28 28 28 28 27 26 24 23 22 22 21 20 20 21 22 21 22 22 23 23 24 24 24 24 24 24 23 23 22 22 22 23 23 22 21 21 21
33 34 32 34 31 31 31 31 31 30 29 29 29 29 29 29 28 27 25 24 23 23 22 21 21 22 23 23 23 22 22 22 22 24 24 25 24 24 24 23 24 24 23 23 23 22 22 22 21
35 33 34 32 33 33 32 34 30 32 29 29 29 30 29 29 29 28 26 25 24 24 23 22 24 24 24 23 22 22 23 24 24 23 24 24 24 24 24 24 24 24 24 23 22 23 22 20 22
35 33 33 33 33 32 31 34 34 29 31 31 31 30 31 30 30 29 27 26 25 25 24 23 24 24 24 24 23 22 22 23 23 23 23 22 23 24 25 25 24 24 23 23 23 23 22 21 22
32 32 32 31 33 33 33 34 36 32 32 34 33 32 31 31 30 29 28 27 25 25 24 24 23 25 25 23 22 22 22 22 23 23 23 23 23 23 24 25 25 25 24 23 23 22 21 22 23
33 35 33 32 33 34 29 32 36 37 35 34 34 34 32 32 31 29 29 27 26 25 25 24 23 24 24 24 23 22 22 22 22 22 23 23 24 24 23 24 24 23 23 23 23 22 23 22 22
34 36 35 33 33 34 29 33 36 35 34 34 34 34 34 32 32 30 29 28 27 26 25 25 24 24 24 23 23 24 22 22 23 22 22 23 23 24 23 22 22 22 22 22 22 22 22 22 21
31 34 35 32 29 34 33 34 35 35 35 33 33 33 33 33 32 31 30 28 27 26 26 26 25 24 24 24 23 23 23 22 22 23 22 23 23 23 22 22 22 22 22 21 20 21 20 20 20
35 33 34 33 32 33 33 33 37 37 37 33 32 32 32 32 32 31 30 28 28 27 26 26 25 25 25 24 23 23 24 24 23 22 22 21 22 22 20 20 21 21 20 20 19 20 20 19 20
32 33 31 34 33 35 34 35 35 34 35 34 34 33 32 32 31 31 31 29 27 27 27 26 25 25 24 23 23 23 22 22 21 21 20 21 21 19 20 19 19 19 19 19 18 19 19 19 19
35 36 36 35 31 31 35 36 35 33 32 32 34 32 32 32 31 31 30 29 27 27 27 26 25 24 23 23 22 22 22 21 20 20 19 19 19 20 18 18 18 18 18 18 18 18 18 18 18

GFSSGP_925_temp_168.txt.gz
Temp
23 24 26 28 33 36 34 33 34 32 31 31 31 31 28 26 24 23 19 19 20 20 21 22 22 22 22 21 22 22 22 21 22 22 22 21 21 21 21 21 21 21 21 21 21 21 21 21 21
26 26 27 34 35 35 32 33 31 31 30 30 31 30 29 24 24 21 20 20 20 20 21 21 22 22 22 22 22 22 21 21 21 21 21 21 21 21 21 21 21 21 21 21 21 21 21 21 21
26 26 33 35 35 33 32 32 31 30 30 30 29 29 26 22 24 21 20 20 20 21 22 22 22 22 21 22 22 22 22 21 21 21 21 21 21 21 21 21 21 21 21 21 21 21 21 22 22
27 30 35 35 34 32 32 32 31 31 31 31 30 27 25 23 24 21 20 20 20 21 22 22 22 22 22 21 22 22 21 21 21 21 21 21 21 21 21 21 21 21 21 21 21 21 21 22 22
30 35 36 35 33 32 32 32 31 31 30 30 30 27 23 23 22 21 21 21 21 21 21 21 22 22 21 21 21 22 21 21 21 21 21 21 21 21 21 21 21 21 20 21 21 21 22 22 22
34 35 36 35 33 32 32 32 31 30 29 29 27 26 21 22 22 21 20 20 20 21 21 21 21 22 21 21 21 21 21 21 21 21 21 21 21 21 21 21 21 21 22 22 22 22 23 23 23
36 37 35 35 33 33 31 32 32 31 29 28 29 24 21 21 22 21 20 20 21 21 21 21 21 22 21 21 21 21 21 21 21 21 21 21 21 21 22 22 22 22 22 22 22 23 23 23 23
36 37 36 36 35 32 32 32 32 31 28 29 29 23 21 20 21 21 21 19 20 21 21 21 21 22 22 21 21 22 22 21 22 21 21 21 22 23 23 23 22 22 22 22 23 23 23 23 24
36 37 36 35 35 33 32 32 31 31 29 28 28 27 21 20 21 22 21 20 20 21 22 22 21 21 21 22 22 21 22 22 23 23 23 23 25 24 24 23 23 23 23 23 23 24 24 24 25
38 38 35 36 35 33 32 32 30 30 29 26 26 23 20 20 20 22 23 19 19 20 21 21 21 21 23 22 22 23 23 24 23 23 23 25 24 24 24 23 23 23 23 23 23 24 24 24 27
37 37 36 35 35 34 32 31 31 31 29 27 25 24 21 21 22 23 24 24 23 23 21 20 22 23 24 22 23 24 24 23 22 22 23 23 24 23 25 25 25 24 24 26 25 25 26 25 26
37 36 36 35 34 34 33 32 31 31 31 29 25 26 22 22 22 24 23 22 23 23 24 24 23 23 22 22 23 24 24 24 24 23 22 23 25 24 24 25 24 24 24 24 25 26 24 25 25
37 36 35 35 34 33 33 32 30 29 29 27 26 26 24 23 23 24 24 25 24 24 24 24 23 21 21 22 22 23 23 23 23 23 22 22 23 24 24 24 24 24 24 24 24 24 25 25 25
37 36 35 35 34 34 33 31 32 29 28 26 25 24 24 24 24 25 24 25 25 25 24 24 23 22 22 23 22 22 23 24 24 24 23 22 23 24 23 24 24 25 25 24 24 24 24 25 26
36 36 36 35 35 33 35 33 31 29 28 25 25 25 25 25 25 25 25 25 25 25 25 24 23 23 22 22 22 23 24 24 24 24 23 22 22 23 23 24 24 25 24 23 24 24 25 25 25
37 38 37 35 35 34 34 33 31 30 30 28 27 26 26 26 26 26 26 25 25 25 25 24 24 24 22 23 23 23 24 24 24 24 24 23 23 24 23 24 24 25 23 24 25 25 25 24 25
37 38 37 35 35 35 35 34 32 31 31 30 29 28 28 28 27 26 26 25 25 25 24 24 23 24 23 23 23 23 23 24 25 25 25 25 24 24 24 25 24 23 23 24 24 24 24 25 25
37 37 37 37 36 35 35 35 33 32 32 32 32 31 30 30 29 27 26 26 25 25 24 23 23 23 22 22 22 23 24 24 25 25 25 24 24 24 24 24 24 23 23 24 24 23 24 24 25
39 38 37 38 37 36 37 37 35 33 33 33 32 32 31 31 31 29 27 26 25 25 24 23 23 23 22 23 24 24 25 25 25 25 25 24 24 24 23 25 24 23 23 24 23 24 24 26 26
38 38 38 37 37 36 37 37 37 35 34 35 34 33 32 32 32 30 28 27 26 25 24 23 23 23 22 23 23 24 25 26 25 25 24 24 24 24 23 23 24 24 24 23 23 23 26 26 25
38 38 38 37 37 37 36 36 37 36 36 36 35 35 34 33 33 31 29 27 27 26 25 24 23 23 23 23 23 23 23 24 24 25 25 25 24 23 23 23 23 23 23 25 23 23 24 27 26
38 38 38 37 37 38 37 37 36 37 36 36 36 35 35 34 33 33 30 29 28 27 26 25 24 23 23 22 24 24 25 26 27 27 27 25 24 24 23 23 23 23 24 24 24 24 24 23 26
38 38 38 37 37 37 36 37 36 38 36 37 37 37 36 35 34 34 32 30 29 28 28 26 24 23 23 23 23 24 24 26 26 26 26 24 24 24 23 24 23 22 23 23 23 23 23 24 24
38 37 37 38 38 36 38 38 38 38 38 38 38 38 38 37 36 34 33 31 30 29 28 27 25 24 23 23 23 23 24 25 26 26 26 26 25 26 24 23 23 22 23 22 23 23 23 23 24
38 38 36 36 36 37 37 37 40 41 40 40 39 39 39 38 37 35 34 32 31 30 29 28 26 25 24 24 23 23 23 23 24 24 25 26 26 27 25 23 22 23 22 22 22 23 23 23 23
37 38 37 34 37 38 36 37 39 41 40 40 40 41 40 39 38 37 35 33 32 30 30 29 28 26 25 25 24 23 23 23 24 25 25 26 26 26 24 23 22 21 21 21 21 22 23 23 23
37 37 40 39 38 39 39 39 40 41 41 40 39 40 40 40 39 37 36 34 33 31 30 29 28 27 26 26 25 24 23 23 25 25 25 25 25 25 23 23 22 22 22 22 22 23 23 22 22
39 39 37 38 36 36 38 38 39 40 41 39 38 39 39 39 39 38 36 35 33 32 31 30 30 28 27 27 26 25 24 23 24 24 24 24 24 23 23 23 23 22 22 22 21 22 21 20 20
36 38 38 40 39 38 37 38 41 40 40 39 39 38 38 38 38 38 37 35 33 33 32 31 30 29 28 27 26 25 25 25 24 24 24 23 22 22 21 21 21 21 21 21 21 21 21 21 21
39 38 39 38 36 38 38 39 41 41 40 39 40 38 39 38 38 37 36 35 33 32 32 31 30 29 27 26 25 25 24 24 24 23 22 21 21 21 21 21 21 21 20 20 20 20 20 20 21

GFSSGP_925_temp_171.txt.gz
Temp
24 25 29 32 33 36 34 34 35 33 33 33 33 32 28 27 26 23 20 20 20 20 21 22 22 22 21 22 22 22 21 21 22 21 21 21 21 21 21 21 21 21 21 21 21 21 21 21 21
29 30 30 34 36 37 35 36 34 32 32 33 32 31 30 25 23 20 20 20 20 20 21 22 22 22 22 22 22 22 21 21 22 22 21 21 21 21 21 21 21 21 21 21 21 21 21 21 21
27 30 34 38 37 36 35 35 34 32 32 32 31 31 28 24 23 20 20 20 20 21 21 21 22 22 22 22 22 22 22 21 21 22 22 21 21 21 21 21 21 21 21 21 21 21 21 21 22
31 34 35 37 35 36 36 35 35 34 34 32 32 27 24 24 24 20 20 20 21 21 22 22 22 21 22 22 22 22 22 21 22 22 21 21 21 21 21 21 21 21 21 21 21 21 21 21 22
33 36 36 37 35 35 35 35 33 34 32 30 31 27 23 24 21 20 20 20 21 22 22 21 21 21 22 21 21 22 21 22 22 21 21 21 21 21 21 21 21 21 22 22 22 22 22 22 23
35 39 38 37 36 36 35 35 34 33 32 32 29 26 22 23 23 22 22 22 23 22 22 22 22 22 22 21 21 21 21 21 21 21 21 21 21 21 21 21 21 22 22 23 23 23 23 23 23
35 38 37 38 37 35 35 36 35 32 30 30 30 25 21 23 23 22 22 22 21 21 22 21 22 21 21 21 21 21 21 21 21 21 21 21 21 22 22 22 21 22 22 23 23 24 24 24 24
39 39 39 38 37 34 35 36 36 32 31 32 31 25 22 22 23 21 22 22 22 21 21 21 22 22 22 22 21 21 22 21 21 22 23 23 23 23 23 23 23 23 23 22 23 24 24 25 25
40 39 37 37 37 35 36 35 34 34 30 29 30 28 24 23 23 23 22 22 21 21 21 21 21 22 22 22 22 22 23 23 24 24 24 24 26 25 24 23 24 23 23 23 23 24 24 25 25
39 39 37 38 37 36 36 35 34 34 31 27 27 25 25 24 24 24 24 22 21 20 20 21 21 22 24 24 23 24 24 25 25 25 25 26 26 25 26 24 24 24 24 24 25 25 25 26 27
41 39 39 38 38 37 36 35 35 34 32 29 26 24 24 24 24 25 24 21 21 22 23 22 22 24 26 25 24 24 26 26 24 23 24 25 25 25 25 25 25 24 25 25 24 24 26 27 27
39 39 39 38 38 37 36 36 34 35 33 32 28 26 25 24 23 25 24 24 23 25 25 24 25 25 24 23 24 25 26 26 25 24 23 24 24 26 26 26 26 26 25 26 26 27 26 26 26
39 39 39 38 37 37 37 35 33 32 31 31 28 27 26 26 26 26 25 24 25 24 26 26 25 23 22 23 24 25 26 26 26 26 24 25 24 24 24 26 26 26 26 26 26 26 26 26 27
40 39 38 38 37 37 35 34 34 32 31 29 27 27 26 27 26 26 26 25 25 26 25 26 24 22 23 24 22 24 25 26 26 26 25 24 24 23 23 24 26 27 26 26 26 25 25 26 27
40 38 38 38 38 37 37 36 33 32 31 28 27 26 26 26 27 27 27 25 26 26 27 27 25 24 24 23 23 24 26 26 26 26 25 24 24 24 24 26 25 27 26 24 26 25 27 27 27
40 40 38 38 39 37 38 34 34 33 31 30 29 28 27 27 27 27 26 26 26 27 27 27 26 26 24 24 24 25 26 26 26 27 27 26 25 25 25 26 27 25 24 25 26 27 27 27 27
38 32 36 38 39 39 38 36 35 35 34 32 31 30 30 30 28 27 26 26 26 28 27 26 26 26 25 24 24 25 25 25 27 27 27 27 25 25 25 26 26 24 24 25 26 26 27 27 27
33 36 40 38 39 39 39 37 36 36 36 34 33 32 32 31 31 30 28 27 26 27 27 26 26 25 25 25 24 25 26 26 27 27 27 26 26 25 25 26 26 24 26 26 26 25 26 26 27
41 39 40 40 40 39 39 38 37 36 37 36 35 34 33 33 32 30 30 29 28 27 26 26 25 25 24 24 25 26 27 27 27 27 27 26 26 26 25 27 27 26 25 26 25 25 26 27 28
40 40 40 40 40 39 39 39 39 37 37 37 36 35 35 35 34 31 30 29 29 28 27 26 25 24 24 24 25 26 27 28 28 27 27 26 25 25 25 25 26 26 26 25 24 24 26 28 28
40 40 40 39 40 40 40 39 39 39 39 39 38 37 36 36 34 33 30 29 29 28 27 26 25 25 24 24 25 25 25 25 26 27 27 27 26 25 25 25 25 24 24 27 25 25 25 27 28
40 41 40 40 39 39 40 36 39 39 39 39 39 38 37 36 36 34 32 30 30 29 28 27 25 24 24 24 25 26 27 27 28 29 29 28 26 26 26 25 25 25 25 26 26 25 25 26 27
40 42 40 40 39 40 40 39 40 40 39 39 39 39 39 37 37 36 33 31 31 30 29 28 26 25 25 24 24 26 25 27 27 28 28 27 26 25 26 25 25 24 24 25 24 24 24 25 26
41 40 40 40 40 39 40 40 40 40 40 40 40 40 39 39 38 37 35 33 32 31 30 29 26 25 24 25 24 24 26 26 27 28 28 28 28 28 28 26 25 24 24 24 24 24 24 24 24
40 39 37 37 38 39 41 40 40 42 42 42 41 41 41 40 39 38 36 34 33 32 31 30 28 25 25 25 25 24 24 25 25 25 27 27 28 29 29 26 24 24 24 23 23 23 23 23 23
39 39 38 36 38 39 40 39 41 43 43 43 43 42 42 41 40 39 38 36 34 33 32 31 29 27 26 26 25 25 24 25 25 25 26 27 28 29 27 25 25 24 24 23 22 22 23 23 22
39 38 41 40 41 40 40 41 42 43 42 42 43 43 42 42 41 40 39 37 35 34 33 32 31 28 27 27 26 25 24 24 27 26 26 26 26 26 26 25 24 24 24 24 23 24 22 21 21
40 41 39 40 38 38 40 40 40 41 42 43 42 42 42 42 42 41 40 38 36 35 34 32 31 30 28 28 27 26 26 25 25 24 25 25 25 24 24 23 23 23 23 23 22 22 22 21 21
39 40 40 41 40 39 39 40 43 42 42 42 42 42 42 42 42 42 41 39 37 36 35 34 32 31 29 28 28 27 27 26 26 26 26 25 24 23 22 22 22 22 22 21 21 21 22 22 22
41 40 40 39 38 40 41 41 44 43 43 42 42 42 42 42 43 42 41 40 38 36 36 35 33 32 30 29 28 27 27 27 27 26 24 23 22 22 22 22 21 21 21 22 22 22 22 22 21